カタログに戻る

STARLINK-11406

運用中通信VLEO
NORAD 63057·PAYLOAD·🇺🇸 United States

打ち上げ Feb 21, 2025 から Cape Canaveral Space Force Station

Loading…

次のパス (今後24時間)

TLE

最新Source: CelesTrak SupGP

元期: Sep 15, 2026, 03:16 UTC

1 63057C 25035F   26258.13659722  .00043049  00000+0  33449-3 0  2587
2 63057  43.0000 313.3480 0001428 267.3607 203.5976 15.70808184    13

AllMySatでSTARLINK-11406をリアルタイム追跡

Download on the App Store